456  
ASUS42 KFFC 261703  
RWRGA  
WEATHER ROUNDUP FOR GEORGIA  
NATIONAL WEATHER SERVICE PEACHTREE CITY GA  
100 PM EDT MON JUN 26 2017  
 
NOTE: "FAIR" INDICATES FEW OR NO CLOUDS BELOW 12,000 FEET WITH NO  
SIGNIFICANT WEATHER AND/OR S TO VISIBILITY
.  
 
* = USE WITH CAUTION. THE STATIONS MARKED WITH AN ASTERISK MAY NOT  
REPORT WEATHER SUCH AS PRECIPITATION, FOG, OR THUNDER AND ARE NOT  
QUALITY CONTROLLED BY NWS.  
 
THE REMARK "TC" DENOTES TEMPERATURE READING IN DEGREES CELSIUS.  
 
GAZ001>058-261800-  
NORTH GEORGIA  
 
CITY SKY/WX TMP DP RH WIND PRES REMARKS
 
ATLANTA MOSUNNY 81 55 40 VRB3 30.17F  
ATHENS MOSUNNY 82 58 43 VRB3 30.18F  
CHAMBLEE SUNNY 82 55 39 MISG 30.17F  
PEACHTREE CITY SUNNY 81 57 43 NE5 30.17F  
ROME SUNNY 81 54 39 NE7 30.18F  
WEST ATLANTA SUNNY 83 59 44 VRB6 30.17F  
GAINESVILLE SUNNY 79 50 36 CALM 30.20F  
CARTERSVILLE SUNNY 80 54 40 N8 30.19F  
 
 
CITY SKY/WX TMP DP RH WIND PRES REMARKS
 
DALTON* SUNNY 77 52 41 NE5 30.19F  
LAWRENCEVILLE* MOSUNNY 81 55 41 NE7 30.19F  
KENNESAW* SUNNY 81 52 36 N6 30.15F  
CANTON* SUNNY 81 55 41 CALM 30.20F  

 
 
GAZ059>098-102>109-261800-  
CENTRAL GEORGIA  
 
CITY SKY/WX TMP DP RH WIND PRES REMARKS
 
AUGUSTA-BUSH CLOUDY 85 57 38 E7 30.12F  
AUGUSTA-DANIEL SUNNY 85 53 33 NE10 30.14F  
COLUMBUS MOSUNNY 84 64 50 E9 30.13F  
MACON CLOUDY 82 62 50 NE13 30.13F  
ROBINS AFB CLOUDY 82 64 55 E7 30.12F  
 
 
CITY SKY/WX TMP DP RH WIND PRES REMARKS
 
LAGRANGE* MOSUNNY 82 62 50 NE8 30.16F  
SYLVANIA* PTSUNNY 84 72 67 NE7 30.12S  
MILLEDGEVILLE* CLOUDY 82 64 54 E8 30.14F  

 
 
GAZ099>101-110>166-261800-  
SOUTH GEORGIA  
 
CITY SKY/WX TMP DP RH WIND PRES REMARKS
 
SAVANNAH CLOUDY 84 70 62 VRB7 30.09S  
VALDOSTA CLOUDY 81 74 79 N6 30.08S  
ALMA CLOUDY 85 71 63 CALM 30.08F HX 90  
ST SIMONS PTSUNNY 86 73 65 W3 30.07F HX 93  
FT STEWART PTSUNNY 84 72 67 NE7 30.06F  
ALBANY SUNNY 87 64 46 W3 30.10F  
HUNTER AFB CLOUDY 83 73 72 CALM 30.06F  
MOODY AFB MOSUNNY 79 71 76 CALM 30.08S  
BRUNSWICK CLOUDY 86 77 74 N9 30.08S HX 97  
 
 
CITY SKY/WX TMP DP RH WIND PRES REMARKS
 
BAINBRIDGE* SUNNY 90 73 58 CALM 30.09S HX 98  
MOULTRIE* SUNNY 84 70 61 N3 30.09F  
VIDALIA* MOSUNNY 86 73 66 NE9 30.10S HX 93  
WAYCROSS* CLOUDY 87 78 74 N8 30.08S HX 100  
DOUGLAS* CLOUDY 82 70 65 N3 30.10F  

 
 
 
CLICK HERE TO GO TO PREVIOUS BULLETINS.

The Nexlab GA Page Main Text Page